Back to catalog

FENGYUN 1C DEB

AlivePO
NORAD 30287·DEBRIS·🇨🇳 China

Launched May 10, 1999 from Taiyuan Satellite Launch Center

Loading…

Next Passes (next 24 hours)

TLE

FreshSource: Space-Track

Epoch: Sep 14, 2026, 11:46 UTC

1 30287U 99025YY  26257.49040469  .00001147  00000-0  75266-3 0  9995
2 30287  98.6177 268.6062 0411415 358.6927 167.6727 13.69326458976315

Track FENGYUN 1C DEB in real time with AllMySat

Download on the App Store